Regional Weather Roundup
Issued by NWS

Home | Current Version | Previous Version | Graphics & Text | Print | Product List | Glossary On
Versions: 1 2 3 4 5 6 7 8 9 10 11 12 13 14 15 16 17 18 19 20 21 22 23 24 25 26 27 28 29 30 31 32 33 34 35 36 37 38 39 40 41 42 43 44 45 46 47 48 49 50
000
ASUS45 KBOU 270307
RWRCO

WEATHER ROUNDUP FOR COLORADO
NATIONAL WEATHER SERVICE DENVER/BOULDER CO
800 PM MST THU FEB 26 2015

NOTE: "FAIR" INDICATES FEW OR NO CLOUDS BELOW 12000 FEET WITH NO
SIGNIFICANT WEATHER AND/OR OBSTRUCTIONS TO VISIBILITY.

COZ001>005-013-030-031-270400-
...NORTHWEST COLORADO...

CITY           SKY/WX    TMP DP  RH WIND       PRES   REMARKS
CRAIG          LGT SNOW  26  23  88 E5        29.87S FOG     WCI  20
HAYDEN         CLOUDY    23  19  86 CALM      29.85F
MEEKER         SNOW      27  23  85 NE7       29.84S VSB 1/2 WCI  19
MOUNT WERNER   NOT AVBL
STEAMBOAT SPGS CLOUDY    21  19  91 CALM      29.84F
WALDEN         CLOUDY    10   5  79 NW12      29.84S WCI  -4
$$

COZ006>008-011-270400-
...WEST CENTRAL VALLEYS...

CITY           SKY/WX    TMP DP  RH WIND       PRES   REMARKS
GRAND JUNCTION CLOUDY    37  24  59 S10       29.85S
MONTROSE       CLOUDY    30  21  69 SE3       29.87S
EAGLE          MOCLDY    30  23  74 SW9       29.85S WCI  22
RIFLE          CLOUDY    33  24  69 SE3       29.84F
DELTA          CLOUDY    34  28  76 CALM      29.86F
NUCLA          CLOUDY    32  25  74 CALM      29.91S
$$

COZ017>023-064>068-270400-
...SOUTHWEST COLORADO...

CITY           SKY/WX    TMP DP  RH WIND       PRES   REMARKS
DURANGO        LGT SNOW  28  26  92 N5        29.86F FOG     WCI  23
CORTEZ         LGT SNOW  30  30 100 W3        29.84F VSB 1
PAGOSA SPRINGS LGT SNOW  30  23  75 SW7       29.86F WCI  23
TELLURIDE      LGT SNOW  22  19  89 E5        29.83S WCI  16
WOLF CREEK PAS LGT SNOW  10   9  92 SW23G31   29.82F VSB 1   WCI -10
$$

COZ009-010-012-014-032>034-037-058>063-270400-
...CENTRAL COLORADO...

CITY           SKY/WX    TMP DP  RH WIND       PRES   REMARKS
ASPEN          CLOUDY    22  19  89 CALM      29.80F
BUENA VISTA    LGT SNOW  11   5  77 SE10      29.91R WCI  -3
COPPER MTN     LGT SNOW  14   9  79 W14       29.74S WCI  -1
BERTHOUD PASS  LGT SNOW   3  -4  72 W10       29.72S WCI -12
COTTONWOOD PAS LGT SNOW  10   5  79 N3        29.81S
GUNNISON       PTCLDY    21  10  63 N5        29.86F WCI  15
KREMMLING      LGT SNOW  21  18  86 CALM      29.85F
LEADVILLE      LGT SNOW   8   6  92 S14       29.76F FOG     WCI  -8
MONARCH PASS     N/A      9   5  85 MISG      29.85F
SALIDA         CLOUDY    11   5  77 E18G29    30.00R WCI  -7
SUNLIGHT       HVY SNOW  18  14  86 CALM      29.78S VSB 1/4
WILKERSON PASS LGT SNOW  -4  -9  77 S8        29.79S WCI -19
$$

COZ069>075-270400-
...SAN LUIS VALLEY/SANGRE DE CRISTO MOUNTAINS...

CITY           SKY/WX    TMP DP  RH WIND       PRES   REMARKS
ALAMOSA        CLOUDY    20  16  84 CALM      29.84F
LA VETA PASS   LGT SNOW  -2  -6  84 MISG      29.84S
SAGUACHE       LGT SNOW  23  21  93 NW5       29.85F WCI  17
$$

COZ035-036-038>040-270400-
...NORTHERN COLORADO FRONT RANGE...

CITY           SKY/WX    TMP DP  RH WIND       PRES   REMARKS
DENVER INTL AP LGT SNOW  12   9  87 E13       30.12S FOG     WCI  -3
DMNS CITY PARK   N/A     13  11  91 N6G13     30.12F WCI   4
AURORA         NOT AVBL
FRONT RANGE AP NOT AVBL
ERIE MUNI ARPT LGT SNOW  14  11  90 E3        30.16S
BOULDER MUN AP LGT SNOW  14  12  92 N3        30.15S
CENTENNIAL     LGT SNOW  13  10  88 W9        30.07R FOG     WCI   1
BROOMFIELD     LGT SNOW  12  10  92 NE7       30.12R WCI   2
FORT COLLINS   CLOUDY    12   9  85 E8        30.18S WCI   1
LONGMONT       LGT SNOW  16  12  84 E3        30.20S
$$

COZ041-046-047-076>085-087-088-270400-
...PIKES PEAK/PALMER DIVIDE AND SOUTHERN FOOTHILLS...

CITY           SKY/WX    TMP DP  RH WIND       PRES   REMARKS
COLO. SPRINGS  LGT SNOW   8   6  92 SE10      30.12R FOG     WCI  -6
A. F. ACADEMY  NOT AVBL
ELLICOTT       NOT AVBL
FALCON         LGT SNOW   4   1  86 SE7       30.07S WCI  -8
FORT CARSON    NOT AVBL
LIMON          LGT SNOW  11   8  88 SE16      30.17R FOG     WCI  -6
MONUMENT HILL  CLOUDY     5   1  85 S12       30.02S WCI -11
TRINIDAD       LGT SNOW  16  12  84 NW7       30.08S FOG     WCI   6
$$

COZ042>045-048>051-090-091-270400-
...NORTHEAST COLORADO...

CITY           SKY/WX    TMP DP  RH WIND       PRES   REMARKS
GREELEY ARPT   CLOUDY    16   7  67 E12       30.19S WCI   3
AKRON          CLOUDY    12   7  80 SE8       30.22S WCI   0
BURLINGTON     CLOUDY    15   6  67 E8        30.28R WCI   4
WRAY           LGT SNOW  18  13  79 E6        30.32S WCI  10
STERLING       CLOUDY    16  10  79 E5        30.27S WCI   9
HOLYOKE        NOT AVBL
FORT MORGAN    CLOUDY    13   9  83 E8        30.24S FOG     WCI   2
$$

COZ086-089-092>099-270400-
...SOUTHEAST COLORADO...

CITY           SKY/WX    TMP DP  RH WIND       PRES   REMARKS
PUEBLO         LGT SNOW  14  12  92 E10       30.19S FOG     WCI   1
LA JUNTA       LGT SNOW  17  12  80 E16       30.24S WCI   2
LAMAR          LGT SNOW  17  12  80 SE10      30.30R WCI   5
SPRINGFIELD      N/A     13  10  88 SE10      30.25R WCI   0
$$


USA.gov is the U.S. government's official web portal to all federal, state and local government web resources and services.